User: anonymous   Login
Location: Unspecified
(0.0000°N, 0.0000°E)
Time: 06:16:41
(UTC+00:00)
Language:

SARAL - Orbit

View from above orbital plane
View from above orbital plane
View from above satellite
View from above satellite

Ground track
Ground track

The orbit data is extracted from the following two-line orbital elements,

1 39086U 13009A   17119.89043991 -.00000013 +00000-0 +11249-4 0  9997
2 39086 098.5410 308.2470 0001961 062.4647 297.6736 14.32000187218192
Epoch (UTC): 29 April 2017 21:22:14
Eccentricity: 0.0001961
inclination: 98.5410°
perigee height: 783 km
apogee height: 786 km
right ascension of ascending node: 308.2470°
argument of perigee: 62.4647°
revolutions per day: 14.32000187
mean anomaly at epoch: 297.6736°
orbit number at epoch: 21819

The dashed part of the orbit path shows where the satellite is in the earth's shadow,  

DLR